Wind_Speed
25 26 26 27 28 30 30 31 32 31 32 33 33 33 33 34 35 36 36 36 36 37 38 38 38 38 38 38 38 37 37 37 37 37 38 40 42 42 43 44 45 44 44
27 28 28 29 30 31 32 33 33 33 34 34 35 35 35 36 37 38 38 37 37 38 38 39 39 39 39 39 38 38 38 38 38 38 39 41 42 44 44 44 44 44 45
28 29 30 31 32 32 33 34 34 34 35 35 35 36 36 37 37 38 39 39 39 39 39 39 40 40 40 39 39 39 39 40 40 41 41 42 43 43 43 43 44 45 45
30 30 31 32 33 33 33 34 34 34 35 35 35 36 36 37 38 39 40 41 41 40 40 40 40 41 41 41 41 41 41 41 42 42 43 43 44 43 43 44 44 45 45
32 32 33 33 33 33 34 34 34 34 34 35 36 37 37 38 39 39 40 40 40 40 40 40 41 41 41 42 42 42 42 42 43 44 44 45 44 44 44 45 45 45 46
32 33 34 34 34 34 34 35 35 34 35 35 37 38 38 39 39 39 40 40 40 40 40 40 41 41 41 42 42 42 42 43 44 45 45 45 45 45 46 46 46 47 47
33 33 34 35 35 36 36 36 36 36 36 37 38 38 38 39 39 40 40 40 40 40 41 41 41 41 41 41 41 41 42 43 44 45 45 45 46 46 47 47 48 48 49
33 34 35 36 36 36 36 36 36 37 37 38 38 39 39 39 39 39 39 39 39 40 41 41 41 42 42 42 42 42 42 44 45 45 46 46 46 47 47 47 48 50 50
35 35 36 36 37 37 37 37 37 38 39 39 39 39 39 39 39 39 39 39 40 41 41 41 41 42 41 41 42 43 44 45 45 46 46 46 47 47 47 48 50 51 50
37 37 37 37 38 39 39 39 39 40 40 40 39 39 39 40 40 40 40 41 41 42 43 43 42 42 42 43 44 45 45 46 46 46 46 47 47 48 49 50 51 51 51
38 39 39 39 39 39 40 40 40 41 41 41 41 41 41 41 41 42 41 42 42 43 43 43 43 43 44 44 45 45 46 47 47 46 47 48 48 49 49 50 51 51 51
40 40 40 41 41 41 42 41 41 41 42 42 42 42 42 42 42 42 42 43 43 44 44 44 44 44 45 45 46 46 47 47 47 47 48 48 48 49 50 50 50 51 51
43 43 43 44 44 43 43 43 43 42 42 42 42 42 43 43 43 43 43 44 44 44 44 44 44 45 45 46 47 47 47 47 48 48 48 49 49 50 50 50 50 50 50
45 45 45 45 45 44 44 44 44 44 44 43 43 43 43 43 43 44 45 45 45 45 45 45 46 46 46 47 47 48 48 47 48 49 49 49 50 50 50 50 49 48 48
47 47 46 45 45 45 45 45 45 45 45 45 44 44 44 44 44 45 46 46 47 47 48 48 48 47 48 47 48 48 48 48 48 49 49 49 49 49 49 48 48 47 46
48 48 47 46 47 47 46 46 45 46 46 47 47 47 46 47 47 47 47 48 48 49 49 49 49 49 49 49 49 49 48 48 49 49 50 49 49 48 47 47 46 46 46
50 49 49 48 48 48 48 47 47 47 47 47 48 48 48 48 49 48 48 49 49 50 50 50 50 50 50 50 50 50 49 49 49 49 49 49 48 47 47 46 46 46 45
52 52 51 50 50 50 50 49 48 48 48 48 48 49 49 49 49 50 50 50 50 50 51 51 50 50 51 51 50 50 50 49 49 49 49 48 48 47 46 46 46 46 45
53 53 53 52 52 51 51 51 50 50 49 49 48 48 49 49 49 50 51 51 51 51 51 51 50 50 51 51 50 50 50 50 49 49 48 48 47 47 46 46 45 45 45
52 52 52 51 51 51 51 51 51 51 50 50 50 50 50 50 50 50 51 51 51 51 51 51 51 51 51 51 51 51 50 50 50 49 48 47 47 46 46 45 45 44 44
49 49 48 48 49 49 50 50 50 50 50 50 50 50 51 50 50 50 50 50 50 50 50 50 50 51 51 51 51 51 50 49 49 48 47 47 46 46 45 45 44 43 43
46 46 47 47 47 47 48 48 48 48 48 48 48 49 49 49 49 49 49 50 50 50 50 50 50 50 51 51 50 49 48 48 47 47 46 46 46 45 45 44 43 42 41
47 47 47 47 47 48 47 47 47 47 47 47 47 47 47 48 48 48 49 49 50 49 49 50 50 50 50 49 48 48 47 47 47 46 46 46 45 45 44 44 43 42 41
47 47 47 47 47 47 47 47 47 47 47 47 47 47 47 48 48 48 48 48 48 48 48 48 48 48 48 47 47 47 47 47 47 46 46 46 45 45 44 43 42 41 40
47 47 47 47 47 47 47 47 47 47 47 47 47 47 47 48 48 48 48 47 47 47 47 47 47 47 47 46 45 45 46 47 47 47 46 46 45 45 44 42 40 39 38
46 46 47 47 47 47 47 47 47 47 47 47 47 47 47 47 48 48 48 47 47 47 47 47 46 46 46 45 44 44 45 45 45 45 45 45 44 44 43 41 38 37 36
Wind_Direction
286 287 287 289 291 292 292 293 293 292 293 293 292 293 292 292 293 295 296 297 296 296 296 296 297 297 298 298 297 296 296 296 296 296 296 297 298 299 299 300 299 299 299
286 287 288 289 290 291 291 292 293 293 293 293 293 293 293 292 294 295 296 296 295 296 296 296 296 296 297 297 297 297 296 297 297 297 298 299 298 299 300 301 301 301 302
286 287 289 289 289 290 291 291 292 292 293 293 293 294 294 294 294 295 296 296 296 296 296 295 295 295 295 296 296 295 296 297 297 298 299 300 300 300 301 302 302 301 302
286 287 289 290 289 289 290 291 291 292 293 293 294 294 295 295 295 294 295 296 296 295 296 296 296 296 295 295 294 294 294 296 297 298 299 300 300 300 301 301 301 301 302
286 286 288 289 289 289 290 291 291 292 293 294 294 295 295 295 295 296 296 296 297 297 297 297 296 295 295 295 295 294 294 296 297 298 298 299 300 300 301 301 301 301 301
286 287 288 289 290 290 289 289 290 292 293 294 295 296 297 296 296 296 296 296 297 298 298 298 297 297 296 296 295 295 295 296 297 298 299 299 299 300 301 302 302 301 301
287 287 287 288 289 290 290 291 292 292 293 294 295 296 296 295 295 295 295 295 296 298 299 298 298 297 297 297 296 295 296 297 299 300 300 300 301 302 302 302 302 303 304
286 287 287 287 288 289 290 290 291 292 293 294 295 296 296 296 296 296 297 296 297 298 299 298 298 298 298 298 297 297 297 299 300 300 301 301 302 302 302 302 303 304 304
285 286 287 287 287 288 289 290 290 292 292 293 294 296 297 297 297 297 297 297 297 299 300 299 299 299 298 298 298 298 298 300 301 301 301 301 301 302 303 303 304 304 304
285 287 288 288 287 287 288 289 290 291 292 293 293 295 296 296 297 296 296 297 297 299 299 299 299 299 298 298 298 299 300 300 300 300 300 301 301 302 303 303 304 304 304
285 286 288 289 289 289 289 290 290 291 291 291 292 293 294 294 295 295 296 296 297 297 298 298 299 299 299 300 300 300 301 301 300 300 301 301 302 302 303 303 304 304 305
285 286 287 288 289 290 290 290 290 290 290 290 290 291 292 294 294 295 296 296 295 296 298 299 299 299 299 300 301 301 302 302 301 301 301 302 302 303 303 303 304 304 305
284 285 286 287 289 289 289 290 290 290 290 290 290 291 292 293 294 295 295 295 295 296 297 298 299 299 300 301 301 302 302 301 301 301 301 302 302 303 302 303 303 303 303
283 284 285 286 287 287 288 289 290 290 290 291 291 291 291 292 293 294 294 295 295 296 296 297 298 299 300 301 302 303 302 301 301 301 301 302 302 302 302 303 302 302 301
282 282 283 284 285 286 286 287 288 289 290 291 291 291 291 291 292 293 294 295 296 296 297 298 298 299 300 301 303 303 303 302 301 301 302 302 303 303 303 303 302 302 301
281 281 282 283 284 285 286 287 288 289 290 290 291 292 292 292 291 292 293 294 295 297 297 297 298 298 299 300 302 302 302 302 302 301 301 302 302 303 303 302 301 301 301
280 280 281 282 283 284 285 286 287 288 289 290 291 292 292 293 293 293 293 294 294 296 297 297 297 297 298 299 300 301 301 301 302 302 302 301 302 302 302 302 301 301 302
279 279 280 281 282 283 283 284 285 287 288 289 290 291 292 293 294 294 294 294 295 295 296 296 296 297 297 298 299 300 300 301 302 303 302 301 301 301 301 302 302 301 301
279 280 280 280 281 282 283 283 284 286 287 288 289 290 291 292 293 294 294 295 295 295 295 296 296 297 297 297 298 298 299 300 301 302 302 302 300 300 300 301 302 302 302
279 280 280 281 281 282 284 285 285 286 287 287 288 289 290 291 292 293 294 295 295 296 296 295 295 296 297 298 298 298 299 300 301 301 301 302 301 300 300 300 301 301 302
279 280 280 281 282 283 284 285 286 285 286 286 287 288 289 290 291 292 293 295 295 296 296 296 296 296 297 298 298 297 298 299 300 300 301 301 302 301 300 300 300 300 301
278 279 280 281 282 284 285 285 285 285 286 287 288 288 289 290 290 291 293 294 295 296 296 296 296 296 297 297 297 297 297 298 299 299 300 301 301 302 302 300 299 298 299
279 279 280 282 283 284 285 285 285 286 286 287 289 290 290 291 292 293 293 294 295 295 295 296 296 296 297 298 298 297 297 298 299 299 300 300 300 301 302 301 299 298 298
279 280 281 282 282 283 284 285 286 286 287 287 289 290 291 292 293 294 294 294 294 295 295 296 296 297 298 299 298 298 297 298 298 299 300 300 300 300 301 301 299 298 298
278 280 281 281 282 283 284 284 285 286 287 288 289 290 291 292 293 294 295 294 294 294 295 296 297 298 298 299 298 297 297 298 298 298 299 300 300 301 301 300 299 298 299
278 279 280 281 282 283 283 284 285 286 286 287 288 289 290 291 292 293 294 293 293 294 294 295 296 297 298 298 298 297 298 298 298 298 299 299 300 301 300 300 299 298 298
Height
5683 5682 5680 5678 5677 5674 5672 5670 5668 5666 5663 5660 5657 5654 5651 5649 5646 5643 5640 5637 5634 5630 5627 5623 5620 5616 5613 5609 5605 5602 5599 5596 5593 5592 5589 5585 5581 5578 5573 5568 5563 5559 5554
5677 5675 5673 5671 5669 5667 5665 5663 5660 5658 5655 5652 5649 5646 5643 5640 5637 5634 5631 5627 5624 5621 5617 5614 5610 5606 5603 5599 5596 5592 5589 5586 5583 5581 5578 5575 5570 5566 5562 5557 5552 5547 5542
5669 5668 5666 5664 5662 5660 5657 5655 5652 5649 5647 5644 5641 5638 5634 5631 5628 5624 5621 5617 5614 5610 5607 5603 5600 5596 5593 5589 5585 5582 5579 5576 5572 5569 5567 5564 5559 5555 5550 5546 5541 5535 5529
5662 5660 5658 5656 5654 5651 5649 5646 5643 5641 5638 5635 5632 5628 5625 5621 5618 5614 5610 5607 5603 5599 5596 5592 5589 5585 5582 5578 5575 5571 5568 5565 5561 5558 5555 5552 5548 5543 5539 5534 5530 5524 5518
5653 5651 5649 5647 5645 5642 5640 5637 5635 5632 5629 5626 5622 5619 5615 5611 5607 5603 5599 5596 5592 5588 5585 5581 5578 5574 5570 5566 5563 5560 5556 5553 5550 5546 5543 5539 5535 5531 5527 5522 5517 5512 5506
5645 5643 5641 5638 5636 5633 5631 5628 5625 5622 5620 5616 5613 5609 5605 5601 5597 5593 5589 5585 5581 5577 5574 5570 5566 5562 5558 5555 5551 5548 5544 5541 5538 5534 5530 5526 5522 5518 5514 5508 5503 5499 5495
5636 5633 5631 5629 5627 5624 5621 5619 5616 5613 5610 5607 5603 5599 5595 5591 5586 5582 5578 5574 5570 5566 5562 5558 5555 5551 5547 5543 5540 5536 5532 5528 5525 5521 5517 5513 5509 5505 5501 5496 5490 5484 5479
5626 5624 5622 5619 5617 5614 5612 5609 5606 5603 5600 5596 5593 5589 5584 5580 5575 5571 5567 5563 5559 5555 5551 5548 5544 5540 5536 5532 5528 5525 5521 5517 5513 5508 5504 5500 5495 5490 5485 5481 5476 5471 5466
5616 5614 5612 5609 5607 5604 5601 5598 5595 5592 5589 5585 5582 5578 5574 5570 5565 5561 5557 5553 5549 5545 5541 5537 5533 5529 5525 5521 5518 5514 5509 5505 5500 5495 5490 5485 5481 5476 5471 5466 5461 5456 5451
5606 5604 5601 5599 5596 5594 5591 5587 5584 5581 5578 5574 5571 5567 5563 5559 5555 5551 5546 5542 5539 5535 5531 5526 5522 5518 5514 5509 5505 5501 5497 5492 5487 5482 5477 5472 5467 5462 5457 5451 5446 5440 5435
5596 5593 5591 5588 5585 5582 5579 5576 5573 5570 5567 5563 5560 5557 5553 5549 5544 5540 5535 5531 5527 5523 5519 5515 5510 5506 5501 5497 5492 5488 5484 5479 5474 5469 5464 5460 5454 5449 5444 5438 5432 5426 5420
5584 5582 5579 5576 5574 5571 5567 5564 5561 5558 5555 5552 5548 5545 5541 5537 5533 5528 5524 5520 5515 5511 5507 5503 5499 5494 5490 5485 5480 5475 5470 5465 5460 5456 5451 5447 5442 5436 5431 5425 5418 5412 5406
5572 5570 5567 5564 5561 5558 5555 5552 5549 5546 5543 5540 5536 5533 5530 5526 5521 5517 5513 5508 5504 5500 5496 5491 5487 5482 5477 5472 5467 5462 5457 5452 5447 5443 5438 5433 5428 5422 5417 5411 5404 5398 5393
5560 5557 5554 5552 5549 5546 5543 5539 5536 5533 5530 5527 5524 5521 5517 5513 5509 5505 5500 5496 5492 5488 5483 5479 5475 5470 5465 5460 5454 5449 5443 5438 5433 5428 5423 5419 5413 5408 5403 5397 5391 5385 5380
5546 5544 5541 5538 5536 5533 5530 5527 5524 5521 5517 5514 5511 5508 5504 5501 5497 5492 5487 5483 5479 5475 5471 5466 5462 5457 5452 5447 5442 5436 5430 5425 5420 5415 5410 5405 5399 5394 5389 5383 5377 5371 5366
5532 5530 5527 5525 5522 5520 5517 5514 5510 5507 5504 5500 5497 5494 5491 5487 5483 5479 5475 5470 5466 5462 5458 5453 5449 5444 5439 5434 5428 5423 5417 5412 5407 5402 5396 5391 5386 5381 5375 5370 5364 5358 5353
5517 5515 5513 5510 5508 5505 5503 5500 5498 5495 5491 5487 5484 5480 5477 5473 5469 5465 5461 5456 5452 5448 5444 5439 5435 5430 5425 5420 5415 5409 5404 5399 5393 5388 5383 5378 5372 5367 5362 5357 5351 5345 5340
5502 5500 5498 5495 5493 5490 5488 5485 5483 5480 5477 5474 5470 5466 5462 5459 5455 5451 5447 5442 5438 5434 5429 5425 5420 5415 5410 5405 5400 5395 5390 5385 5380 5374 5369 5364 5358 5353 5349 5344 5338 5333 5327
5486 5484 5482 5480 5477 5475 5473 5470 5468 5465 5462 5459 5456 5452 5448 5444 5440 5436 5432 5428 5423 5419 5415 5410 5405 5401 5396 5391 5386 5381 5376 5371 5366 5361 5355 5350 5345 5340 5335 5330 5325 5319 5314
5470 5468 5466 5464 5462 5459 5457 5455 5452 5450 5447 5444 5441 5438 5434 5430 5426 5422 5417 5413 5409 5404 5399 5395 5390 5386 5381 5376 5371 5367 5362 5357 5352 5347 5341 5336 5331 5326 5321 5316 5312 5307 5302
5454 5452 5450 5448 5446 5444 5442 5439 5437 5434 5431 5429 5426 5422 5418 5415 5411 5407 5403 5398 5394 5389 5385 5380 5376 5371 5366 5361 5357 5352 5347 5343 5338 5333 5328 5323 5318 5313 5308 5303 5298 5294 5289
5439 5437 5436 5434 5432 5429 5426 5424 5421 5418 5416 5413 5410 5406 5402 5399 5396 5392 5388 5384 5379 5375 5370 5366 5361 5356 5352 5347 5342 5338 5333 5329 5324 5319 5315 5310 5305 5300 5295 5290 5286 5281 5277
5424 5422 5421 5419 5417 5414 5412 5409 5407 5404 5401 5398 5395 5392 5388 5385 5381 5377 5373 5369 5365 5360 5355 5351 5346 5342 5337 5332 5327 5323 5319 5315 5310 5305 5301 5297 5292 5287 5282 5277 5273 5269 5265
5409 5408 5406 5404 5402 5400 5398 5395 5393 5390 5387 5384 5381 5378 5374 5371 5367 5363 5358 5354 5350 5345 5341 5336 5332 5327 5322 5318 5313 5309 5305 5301 5296 5292 5288 5283 5279 5274 5270 5265 5261 5257 5253
5394 5393 5391 5389 5388 5385 5383 5381 5378 5376 5373 5370 5367 5364 5360 5356 5352 5348 5344 5340 5336 5331 5327 5322 5318 5313 5308 5304 5299 5295 5291 5287 5283 5278 5274 5270 5266 5262 5257 5253 5249 5246 5242
5379 5378 5377 5375 5373 5370 5368 5366 5364 5361 5358 5355 5352 5349 5345 5342 5338 5334 5330 5325 5321 5317 5313 5308 5304 5299 5295 5290 5286 5282 5278 5273 5269 5265 5261 5257 5253 5249 5245 5241 5238 5234 5231